Location: Famechon
(49.7599°N, 2.0615°E)
Time: 22:26:24
(UTC+00:00)

Cosmos 1741 Rocket - Pass Details

Date: 28 March 2025
Orbit: 758 x 778 km, 74.0° (Epoch: 28 April)

Event Time Altitude Azimuth Distance (km) Brightness Sun altitude
Rises 23:50:47 0° 341° (NNW) 3,235 8.1 -36.8°
Reaches altitude 10° 23:53:27 10° 352° (N) 2,308 7.2 -36.8°
Enters shadow 23:56:25 25° 22° (NNE) 1,515 6.0 -36.8°
